Home   Weather   Kazan   Past weeks

Flag for Russia Past Weather in Kazan, Russia — Yesterday and Last 2 Weeks

Now
18 °F

Heavy snow. Low clouds.


Feels Like: 2 °F
Forecast: 17 / 31 °F
Wind: 17 mph from South

Location: Kazan'

Current Time: Dec 5, 2016 at 11:58:08 pm

Latest Report: Dec 5, 2016 at 11:30 pm


Visibility: 0 mi

Pressure: 29.47 "Hg

Humidity: 93%

Dew Point: 16 °F

Location of KazanLocation

Past Weather in Kazan — Graph

°F

Kazan Temperature Yesterday

Maximum temperature yesterday: 14 °F (at 9:30 am)
Minimum temperature yesterday: 1 °F (at 6:30 pm)
Average temperature yesterday: 10 °F

High & Low Weather Summary for the Past Weeks

 TemperatureHumidityPressure
High36 °F (Nov 28, 9:00 pm)100% (Nov 26, 3:00 am)31.07 "Hg (Nov 26, 3:00 am)
Low0 °F (Nov 30, 8:30 pm)39% (Nov 22, 10:30 am)29.30 "Hg (Nov 28, 7:00 pm)
Average20 °F80%29.99 "Hg
* Reported Nov 20 10:00 pm — Dec 5 10:30 pm, Kazan, Weather by CustomWeather, © 2016

Note: Actual official high and low records may vary slightly from our data, if they occured in-between our weather recording intervals... More about our weather records

Advertising

Kazan Weather History for the Previous 24 Hours

Scroll right to see more
 ConditionsComfort  
Time TempWeatherWind HumidityBarometerVisibility
10:30 pm
Mon, Dec 5
18 °FSnow. Overcast.22 mph86%29.50 "Hg1 mi
10:00 pm18 °FOvercast.20 mph86%29.53 "HgN/A
9:30 pm18 °FOvercast.20 mph86%29.56 "HgN/A
9:00 pm18 °FOvercast.20 mph86%29.59 "HgN/A
8:30 pm18 °FLight snow. Overcast.17 mph79%29.62 "HgN/A
8:00 pm18 °FLight snow. Overcast.17 mph79%29.65 "HgN/A
7:30 pm18 °FPassing clouds.13 mph86%29.68 "HgN/A
7:00 pm18 °FPassing clouds.10 mph86%29.71 "HgN/A
6:30 pm18 °FPassing clouds.10 mph86%29.74 "HgN/A
6:00 pm19 °FOvercast.13 mph86%29.74 "HgN/A
5:30 pm19 °FPassing clouds.10 mph79%29.77 "HgN/A
5:00 pm19 °FPassing clouds.15 mph86%29.80 "HgN/A
4:30 pm19 °FOvercast.13 mph86%29.80 "HgN/A
4:00 pm19 °FPassing clouds.10 mph86%29.83 "HgN/A
3:30 pm19 °FOvercast.8 mph86%29.83 "HgN/A
3:00 pm19 °FLight snow. Overcast.8 mph86%29.83 "HgN/A
2:30 pm19 °FLight snow. Overcast.8 mph86%29.86 "HgN/A
2:00 pm19 °FLight snow. Overcast.10 mph86%29.86 "HgN/A
1:30 pm19 °FLight snow. Overcast.8 mph93%29.89 "HgN/A
1:00 pm19 °FLight snow. Overcast.6 mph86%29.89 "Hg6 mi
12:30 pm19 °FLight snow. Overcast.8 mph86%29.89 "Hg5 mi
12:00 pm19 °FLight snow. Low clouds.6 mph86%29.89 "Hg5 mi
11:30 am18 °FLight snow. Low clouds.8 mph93%29.92 "Hg6 mi
11:00 am18 °FLight snow. Overcast.6 mph93%29.92 "Hg5 mi
10:30 am18 °FLight snow. Overcast.6 mph93%29.92 "Hg3 mi
10:00 am18 °FLight snow. Overcast.6 mph93%29.95 "Hg3 mi
9:30 am18 °FLight snow. Overcast.3 mph93%29.95 "Hg2 mi
9:00 am18 °FLight snow. Overcast.3 mph86%29.95 "Hg4 mi
8:30 am16 °FLight snow. Overcast.3 mph93%29.95 "HgN/A
8:00 am16 °FLight snow. Overcast.3 mph93%29.95 "HgN/A
7:30 am16 °FLight snow. Overcast.3 mph93%29.95 "HgN/A
7:00 am16 °FLight snow. Overcast.1 mph93%29.95 "Hg6 mi
6:30 am16 °FLight snow. Overcast.1 mph93%29.95 "Hg6 mi
6:00 am16 °FLight snow. Overcast.3 mph86%29.95 "Hg5 mi
5:30 am14 °FLight snow. Overcast.3 mph92%29.95 "Hg6 mi
5:00 am16 °FLight snow. Overcast.3 mph86%29.95 "Hg5 mi
4:30 am14 °FLight snow. Overcast.3 mph92%29.95 "Hg4 mi
4:00 am14 °FLight snow. Overcast.3 mph92%29.98 "Hg4 mi
3:30 am14 °FLight snow. Overcast.1 mph92%29.95 "Hg4 mi
3:00 am14 °FLight snow. Overcast.1 mph92%29.98 "Hg4 mi
2:30 am14 °FLight snow. Overcast.1 mph92%29.98 "Hg6 mi
2:00 am14 °FLight snow. Overcast.3 mph92%29.95 "HgN/A
1:30 am14 °FLight snow. Overcast.3 mph92%29.95 "Hg6 mi
1:00 am16 °FLight snow. Overcast.3 mph86%29.98 "Hg5 mi
12:30 am16 °FLight snow. Overcast.3 mph86%29.98 "Hg5 mi
12:00 am14 °FLight snow. Overcast.3 mph92%29.98 "Hg5 mi
11:30 pm
Sun, Dec 4
14 °FLight snow. Overcast.6 mph92%29.98 "Hg6 mi
11:00 pm14 °FLight snow. Overcast.6 mph92%29.98 "Hg5 mi
Weather by CustomWeather, © 2016

See weather overviewHow to use our weather pages